Location: Limoges
(45.8500°N, 1.2500°E)
Time: 02:41:54
(UTC+02:00)

ISS - Pass Details

Date: 29 September 2021
Orbit: 417 x 423 km, 51.6° (Epoch: 21 October)

Event Time Altitude Azimuth Distance (km) Brightness Sun altitude
Rises 21:48:21 0° 298° (WNW) 2,367 1.5 -23.0°
Reaches altitude 10° 21:50:27 10° 300° (WNW) 1,502 0.1 -23.3°
Enters shadow 21:52:49 42° 309° (NW) 613 -2.5 -23.7°
